PRSC-EO1

Last updated on Mon Sep 07 2026 00:02:46 GMT+0000 (Coordinated Universal Time)

1 62725U 25012A 26249.61915299 .00004018 00000+0 20260-3 0 9992 2 62725 97.4164 320.4537 0004732 3.6057 356.5210 15.17696169 90547
UTC large
Height (km)
Speed (km/s)
/
Latitude / Longitude
Inclination (degrees)
Orbital Period (minutes)
Azimuth
Elevation
Range (km)
Doppler Factor

Next 0 passes for location: London (51.5072 / 0.1276)

No passes found over London.
PRSC-EO1